[[{"header":{"parameterUnit":"m.s-1","parameterCategory":1,"la1":30.2991,"la2":30.254,"lo1":-89.0895,"lo2":-89.0444,"dy":0.0017,"dx":0.0017,"nx":28,"ny":28,"refTime":"2024-04-07T03:00:00:Z","depth":0,"parameterNumber":2,"parameterNumberName":"U-component_of_WINDS"},"data":[0,0,0,0,0,0,0,0,0,0,0,0,0,0,0,0,0,0,0,0,0,0,0,0,0,0,0,0,0,0,0,0,0,0,0,0,0,0,0,0,0,0,0,0,0,0,0,0,0,0,0,0,0,0,0,0,0,0,-3.941,-3.941,0,-3.9414,-3.9415,-3.9415,-3.9369,-3.9368,-3.9367,-3.9366,-3.9369,-3.9371,-3.9372,0,0,0,0,0,0,0,0,0,0,0,0,0,-3.9364,-3.9365,-3.941,-3.941,-3.941,-3.9414,-3.9415,-3.9415,-3.937,-3.9368,-3.9367,-3.9365,-3.9369,-3.937,-3.9372,0,0,0,0,0,0,0,0,0,0,0,0,0,-3.9378,-3.9365,-3.941,-3.9388,-3.9387,-3.9414,-3.9415,-3.9415,-3.937,-3.9368,-3.9366,-3.9364,-3.9368,-3.937,-3.9372,-3.9421,0,0,-3.9378,-3.9379,0,0,0,0,0,0,0,0,-3.9377,-3.9379,-3.9392,-3.939,-3.9388,-3.939,-3.9399,-3.9417,-3.937,-3.9376,-3.9366,-3.9364,-3.9378,-3.9379,-3.9383,-3.9421,-3.9421,-3.9378,-3.9379,-3.938,-3.9381,0,0,0,0,0,0,0,-3.9376,-3.9379,-3.9412,-3.9392,-3.939,-3.9379,-3.9378,-3.9402,-3.9387,-3.9376,-3.9372,-3.9373,-3.9376,-3.9382,-3.9383,-3.9421,-3.9378,-3.938,-3.9381,-3.9382,-3.95,-3.9502,0,0,0,0,0,0,-3.9378,-3.9378,-3.9412,-3.9412,-3.9378,-3.9381,-3.9381,-3.9391,-3.9387,-3.9384,-3.9375,-3.9371,-3.9379,-3.9381,-3.9383,-3.944,-3.938,-3.9382,-3.9383,-3.9498,-3.9501,-3.9503,0,0,0,0,0,0,-3.9377,-3.9381,-3.9412,-3.9394,-3.9397,-3.9384,-3.9395,-3.9392,-3.9397,-3.9386,-3.9383,-3.9383,-3.9378,-3.938,-3.9412,-3.9439,-3.9383,-3.9384,-3.9496,-3.9499,-3.9502,-3.9554,0,0,0,0,0,0,-3.9376,-3.9381,-3.9399,-3.9395,-3.9398,-3.944,-3.9397,-3.9393,-3.9401,-3.9396,-3.9394,-3.9391,-3.9377,-3.941,-3.9414,-3.9441,-3.9386,-3.9493,-3.9497,-3.9501,-3.9549,-3.9558,-3.9565,0,0,0,0,0,-3.9374,-3.9414,-3.9401,-3.9405,-3.9421,-3.9442,-3.9444,-3.9426,-3.9403,-3.9421,-3.9415,-3.9391,-3.9436,-3.9413,-3.9418,-3.9446,-3.9491,-3.9496,-3.95,-3.9546,-3.9556,-3.9565,0,0,0,0,0,0,-3.9421,-3.9413,-3.9398,-3.9437,-3.9441,-3.9434,-3.9456,-3.9438,-3.9448,-3.9443,-3.9421,-3.9421,-3.9456,-3.9454,-3.9429,-3.9493,-3.946,-3.9465,-3.9493,-3.9503,-3.951,-3.9509,-3.9387,0,0,0,0,0,-3.9436,-3.9454,-3.9446,-3.9481,-3.9484,-3.947,-3.9479,-3.9465,-3.9468,-3.9469,-3.9464,-3.9468,-3.9483,-3.9493,-3.9506,-3.955,-3.9548,-3.9571,-3.9579,-3.9586,-3.9591,-3.9614,-3.9624,-3.9518,-3.9518,-3.9517,0,0,-3.9466,-3.9464,-3.9476,-3.949,-3.9491,-3.951,-3.9471,-3.9493,-3.9507,-3.9472,-3.9501,-3.9499,-3.9501,-3.9539,-3.9556,-3.9539,-3.962,-3.9592,-3.9597,-3.9598,-3.9619,-3.9629,-3.9638,-3.9521,-3.952,-3.952,0,0,-3.9531,-3.9532,-3.9561,-3.9564,-3.9566,-3.9558,-3.9565,-3.9562,-3.9559,-3.9588,-3.9563,-3.9579,-3.9605,-3.9608,-3.9613,-3.9682,-3.9661,-3.9687,-3.9728,-3.9751,-3.9759,-3.9766,-3.979,-3.9799,-3.9692,-3.9692,-3.9692,0,-3.9568,-3.9596,-3.9578,-3.9602,-3.9609,-3.958,-3.9609,-3.9613,-3.9619,-3.9625,-3.9606,-3.9639,-3.9638,-3.9676,-3.9693,-3.9699,-3.9706,-3.9686,-3.976,-3.9767,-3.9773,-3.9795,-3.9805,-3.9695,-3.9695,-3.9694,-3.9694,0,-3.9642,-3.9662,-3.9685,-3.9693,-3.9703,-3.9729,-3.9716,-3.9728,-3.9715,-3.9708,-3.9739,-3.9738,-3.975,-3.9759,-3.9745,-3.9795,-3.9785,-3.9763,-3.9729,-3.9787,-3.9807,-3.9816,-3.97,-3.9698,-3.9698,-3.9697,0,0,-3.9733,-3.9733,-3.9742,-3.9745,-3.9747,-3.9762,-3.9788,-3.9801,-3.9811,-3.9818,-3.9839,-3.9862,-3.9843,-3.9849,-3.9836,-3.9856,-3.991,-3.9832,-3.9832,-3.9845,-3.9965,-3.9979,-3.999,-3.9897,-3.9899,-3.99,-3.9964,0,-3.9796,-3.984,-3.9826,-3.987,-3.9888,-3.9862,-3.9884,-3.9888,-3.9883,-3.9898,-3.9892,-3.9909,-3.9883,-3.9886,-3.9905,-3.9899,-3.9933,-3.9895,-3.9915,-3.9916,-3.9914,-4.0001,-4.0016,-4.0076,-3.9972,-3.9973,-3.9974,0,-3.9874,-3.9884,-3.9931,-3.993,-3.9938,-3.9958,-3.9969,-3.9984,-3.9988,-3.9983,-3.999,-3.9974,-3.9999,-3.9967,-4.0001,-3.9976,-3.9984,-3.9983,-3.9985,-3.9984,-3.9947,-4.0001,-4.0095,-4.0104,-3.9987,-3.9986,-3.9985,0,-3.9935,-3.9961,-3.9992,-3.9996,-3.9997,-4.0012,-4.0013,-4.0015,-4.0024,-4.0034,-4.0039,-4.0052,-4.0059,-4.007,-4.0057,-4.0035,-4.0094,-4.006,-4.009,-4.009,-4.0101,-4.01,-4.0196,-4.011,-4.0109,-4.0109,-4.0109,0,-4.0006,-4.0035,-4.0019,-4.0038,-4.007,-4.0055,-4.0087,-4.0085,-4.0088,-4.0106,-4.0084,-4.0102,-4.0085,-4.0101,-4.0092,-4.0121,-4.0125,-4.0121,-4.0118,-4.0122,-4.0123,-4.0126,-4.0121,-4.0112,-4.0111,-4.0111,-4.011,0,-4.0078,-4.0069,-4.0101,-4.01,-4.0101,-4.0124,-4.0123,-4.014,-4.0135,-4.0158,-4.0163,-4.0154,-4.0172,-4.0161,-4.0179,-4.0173,-4.0212,-4.0204,-4.021,-4.0207,-4.0237,-4.0234,-4.0337,-4.035,-4.0256,-4.0257,-4.0258,0,-4.0123,-4.0145,-4.0146,-4.0157,-4.016,-4.0178,-4.0187,-4.0173,-4.0183,-4.0191,-4.0207,-4.0224,-4.0236,-4.0266,-4.0261,-4.0275,-4.0266,-4.0301,-4.0268,-4.0271,-4.0265,-4.0263,-4.0265,-4.0307,-4.0308,-4.0309,-4.031,0,-4.0203,-4.0198,-4.0212,-4.0225,-4.0237,-4.0247,-4.0255,-4.0265,-4.0251,-4.0264,-4.0282,-4.0292,-4.0311,-4.0327,-4.034,-4.0341,-4.0323,-4.0321,-4.0328,-4.0332,-4.0334,-4.0332,-4.0227,-4.0318,-4.0317,-4.0317,-4.0316,-4.0316,-4.0262,-4.028,-4.0284,-4.0301,-4.0306,-4.0314,-4.0331,-4.0328,-4.0343,-4.0358,-4.0349,-4.0371,-4.0375,-4.039,-4.0393,-4.041,-4.0396,-4.0407,-4.0409,-4.0412,-4.0415,-4.0334,-4.0412,-4.0412,-4.0412,-4.0412,-4.0412,0,-4.034,-4.0342,-4.0358,-4.037,-4.0383,-4.0367,-4.0375,-4.0387,-4.0407,-4.0413,-4.0426,-4.0447,-4.0463,-4.0461,-4.0475,-4.0489,-4.0481,-4.0493,-4.0491,-4.0492,-4.0428,-4.0419,-4.0499,-4.0499,-4.0499,-4.0499,-4.0499,-4.0499,-4.0382,-4.0412,-4.0408,-4.044,-4.0442,-4.0463,-4.0469,-4.0477,-4.0481,-4.0506,-4.052,-4.0518,-4.0521,-4.0536,-4.055,-4.0549,-4.0555,-4.0569,-4.0565,-4.0505,-4.0496,-4.0488,-4.048,-4.0571,-4.0571,-4.0628,-4.0628,-4.0629]},{"header":{"parameterUnit":"m.s-1","parameterCategory":1,"la1":30.2991,"la2":30.254,"lo1":-89.0895,"lo2":-89.0444,"dy":0.0017,"dx":0.0017,"nx":28,"ny":28,"refTime":"2024-04-07T03:00:00:Z","depth":0,"parameterNumber":3,"parameterNumberName":"V-component_of_WINDS"},"data":[0,0,0,0,0,0,0,0,0,0,0,0,0,0,0,0,0,0,0,0,0,0,0,0,0,0,0,0,0,0,0,0,0,0,0,0,0,0,0,0,0,0,0,0,0,0,0,0,0,0,0,0,0,0,0,0,0,0,3.3044,3.3044,0,3.305,3.305,3.305,3.3041,3.304,3.304,3.304,3.3043,3.3043,3.3044,0,0,0,0,0,0,0,0,0,0,0,0,0,3.3023,3.3023,3.3044,3.3044,3.3044,3.305,3.305,3.305,3.3041,3.304,3.304,3.304,3.3043,3.3043,3.3044,0,0,0,0,0,0,0,0,0,0,0,0,0,3.303,3.3023,3.3044,3.304,3.304,3.305,3.305,3.305,3.3041,3.304,3.304,3.3039,3.3043,3.3043,3.3044,3.3057,0,0,3.3045,3.3046,0,0,0,0,0,0,0,0,3.303,3.3031,3.3041,3.304,3.304,3.3044,3.3044,3.3052,3.3041,3.304,3.304,3.3039,3.3043,3.3044,3.3046,3.3057,3.3057,3.3045,3.3046,3.3046,3.3046,0,0,0,0,0,0,0,3.303,3.3031,3.3046,3.3041,3.304,3.3038,3.3038,3.3045,3.3044,3.304,3.304,3.3041,3.3043,3.3045,3.3046,3.3057,3.3045,3.3046,3.3046,3.3046,3.308,3.3081,0,0,0,0,0,0,3.303,3.3031,3.3046,3.3046,3.3034,3.3038,3.3039,3.3043,3.3044,3.3044,3.3041,3.304,3.3045,3.3045,3.3046,3.3062,3.3046,3.3047,3.3047,3.3079,3.308,3.3081,0,0,0,0,0,0,3.3029,3.3031,3.3046,3.3038,3.304,3.3039,3.3044,3.3044,3.3046,3.3045,3.3044,3.3044,3.3044,3.3045,3.3055,3.3062,3.3047,3.3047,3.3079,3.308,3.308,3.3094,0,0,0,0,0,0,3.3029,3.3031,3.3036,3.3039,3.304,3.3055,3.3044,3.3044,3.3047,3.3046,3.3047,3.3047,3.3044,3.3054,3.3055,3.3063,3.3048,3.3078,3.3079,3.308,3.3093,3.3095,3.3097,0,0,0,0,0,3.3028,3.3039,3.3037,3.3038,3.3047,3.3055,3.3056,3.3053,3.3048,3.3053,3.3053,3.3047,3.3061,3.3055,3.3056,3.3064,3.3078,3.3079,3.308,3.3092,3.3095,3.3097,0,0,0,0,0,0,3.3036,3.3039,3.3036,3.3048,3.3052,3.3054,3.306,3.3056,3.306,3.3059,3.3055,3.3055,3.3066,3.3066,3.3058,3.3077,3.3068,3.307,3.3077,3.308,3.3082,3.3081,3.3048,0,0,0,0,0,3.3039,3.3047,3.3048,3.3059,3.3061,3.306,3.3063,3.3062,3.3064,3.3065,3.3065,3.3068,3.3073,3.3076,3.3081,3.3093,3.3093,3.3099,3.3101,3.3103,3.3104,3.3112,3.3115,3.3085,3.3085,3.3085,0,0,3.3046,3.3048,3.3053,3.3061,3.3063,3.307,3.3061,3.3069,3.3074,3.3066,3.3075,3.3076,3.3078,3.3089,3.3094,3.309,3.3113,3.3105,3.3106,3.3106,3.3114,3.3116,3.3119,3.3086,3.3085,3.3085,0,0,3.3062,3.3064,3.3074,3.3077,3.3081,3.3081,3.3083,3.3086,3.3087,3.3096,3.3091,3.3097,3.3105,3.3108,3.311,3.3129,3.3124,3.313,3.3141,3.3149,3.3151,3.3153,3.3161,3.3163,3.3132,3.3132,3.3132,0,3.3069,3.308,3.3079,3.3088,3.3091,3.3086,3.3096,3.3099,3.3104,3.3106,3.3101,3.3113,3.3114,3.3127,3.3132,3.3133,3.3136,3.313,3.3151,3.3153,3.3155,3.3162,3.3165,3.3132,3.3132,3.3132,3.3132,0,3.309,3.3098,3.3105,3.3112,3.3116,3.3125,3.3125,3.313,3.3128,3.3128,3.3138,3.314,3.3145,3.3148,3.3145,3.316,3.3158,3.3152,3.3143,3.3159,3.3165,3.3168,3.3134,3.3133,3.3133,3.3133,0,0,3.3109,3.3117,3.312,3.3123,3.3129,3.3135,3.3144,3.315,3.3155,3.3159,3.3166,3.3175,3.317,3.3173,3.3171,3.3177,3.3193,3.3171,3.3171,3.3175,3.3211,3.3215,3.3218,3.319,3.3191,3.3191,3.3211,0,3.3126,3.3143,3.3143,3.3158,3.3166,3.3162,3.317,3.3174,3.3175,3.3181,3.3182,3.3188,3.3181,3.3183,3.3189,3.319,3.32,3.3188,3.3197,3.3197,3.3197,3.3221,3.3226,3.3244,3.3213,3.3214,3.3214,0,3.3147,3.3154,3.3171,3.3176,3.318,3.3187,3.3194,3.32,3.3205,3.3205,3.3209,3.3206,3.3215,3.3206,3.3219,3.3211,3.3214,3.3215,3.3216,3.3217,3.3207,3.3223,3.325,3.3253,3.3218,3.3217,3.3217,0,3.3161,3.3174,3.3186,3.3189,3.3196,3.3202,3.3204,3.3209,3.3213,3.3219,3.3222,3.3228,3.3231,3.3236,3.3235,3.3228,3.3248,3.3239,3.3248,3.3249,3.3253,3.3252,3.3281,3.3254,3.3254,3.3254,3.3254,0,3.3179,3.319,3.3193,3.32,3.3212,3.3212,3.3224,3.3226,3.323,3.3238,3.3234,3.3241,3.3239,3.3246,3.3245,3.3256,3.3257,3.3258,3.3257,3.3258,3.3258,3.326,3.3259,3.3255,3.3255,3.3255,3.3255,0,3.3197,3.3199,3.3212,3.3218,3.322,3.3229,3.3234,3.3241,3.3242,3.3252,3.3254,3.3255,3.3263,3.3263,3.3271,3.3271,3.3285,3.3283,3.3284,3.3284,3.3293,3.3293,3.3324,3.3329,3.3299,3.33,3.33,0,3.3208,3.3217,3.3225,3.323,3.3234,3.3243,3.3248,3.3248,3.3254,3.3261,3.3267,3.3275,3.3282,3.3295,3.3296,3.3303,3.3301,3.3312,3.3302,3.3303,3.3302,3.3302,3.3303,3.3314,3.3314,3.3314,3.3315,0,3.323,3.3231,3.3239,3.3249,3.3256,3.3262,3.3269,3.3273,3.3274,3.328,3.329,3.3295,3.3305,3.3313,3.332,3.3322,3.3319,3.3318,3.3321,3.3322,3.3322,3.3323,3.329,3.3317,3.3317,3.3317,3.3317,3.3316,3.3245,3.3253,3.326,3.327,3.3275,3.3282,3.3289,3.3292,3.33,3.331,3.3309,3.3319,3.3324,3.3334,3.3337,3.3345,3.3341,3.3344,3.3345,3.3346,3.3348,3.3321,3.3346,3.3345,3.3345,3.3345,3.3345,0,3.3267,3.3272,3.3281,3.3291,3.3299,3.3297,3.3304,3.331,3.332,3.3326,3.3333,3.3344,3.3352,3.3355,3.3363,3.3369,3.3367,3.3371,3.3371,3.3371,3.335,3.3348,3.3372,3.3372,3.3372,3.3372,3.3372,3.3372,3.3279,3.3293,3.3295,3.3312,3.3316,3.3328,3.3332,3.3338,3.3343,3.3356,3.3364,3.3366,3.3371,3.3379,3.3387,3.3387,3.3391,3.3395,3.3395,3.3375,3.3373,3.337,3.3367,3.3395,3.3396,3.3415,3.3415,3.3415]}]]